This is the latest recevied weather packets stored in our database for station/object SQ5DN-4. If no packets are shown the sender has not sent any weather packets the latest 10 day(s).
| Time | Temp. | Humidity | Pressure | Rain* | Wind** | Luminosity | Snow |
|---|---|---|---|---|---|---|---|
| 1777545466 | 11.67° C | 32% | 1026 hPa | - | - | - | - |
| 1777544867 | 11.11° C | 33% | 1026 hPa | - | - | - | - |
| 1777544272 | 10° C | 33% | 1026 hPa | - | - | - | - |
| 1777543727 | 9.44° C | 35% | 1026 hPa | - | - | - | - |
| 1777543176 | 9.44° C | 36% | 1026 hPa | - | - | - | - |
| 1777542607 | 9.44° C | 38% | 1026 hPa | - | - | - | - |
| 1777542016 | 9.44° C | 37% | 1026 hPa | - | - | - | - |
| 1777541436 | 9.44° C | 38% | 1026 hPa | - | - | - | - |
| 1777540952 | 8.33° C | 38% | 1026 hPa | - | - | - | - |
| 1777540392 | 9.44° C | 39% | 1026 hPa | - | - | - | - |
| 1777539912 | 7.78° C | 42% | 1027 hPa | - | - | - | - |
| 1777539352 | 7.78° C | 42% | 1027 hPa | - | - | - | - |
| 1777538867 | 8.33° C | 41% | 1027 hPa | - | - | - | - |
| 1777538322 | 8.33° C | 43% | 1027 hPa | - | - | - | - |
| 1777537822 | 9.44° C | 42% | 1027 hPa | - | - | - | - |
| 1777537322 | 7.78° C | 44% | 1027 hPa | - | - | - | - |
| 1777536767 | 7.22° C | 47% | 1026 hPa | - | - | - | - |
| 1777536267 | 6.67° C | 46% | 1027 hPa | - | - | - | - |
| 1777535667 | 7.22° C | 48% | 1027 hPa | - | - | - | - |
| 1777535107 | 6.67° C | 47% | 1027 hPa | - | - | - | - |
| 1777534627 | 6.67° C | 47% | 1027 hPa | - | - | - | - |
| 1777534136 | 6.67° C | 48% | 1027 hPa | - | - | - | - |
| 1777533652 | 5.56° C | 52% | 1027 hPa | - | - | - | - |
| 1777533127 | 6.67° C | 53% | 1027 hPa | - | - | - | - |
| 1777532627 | 5.56° C | 55% | 1027 hPa | - | - | - | - |
* Rain since midnight (hover to see other rain measurements)
** Current wind speed in m/s (hover to see current wind gust speed)